Weather History for KHJH - April, 2013

Change the Weather History Date:

Wednesday, April 24, 2013

  Actual Average Record
Temperature  
Mean Temperature 44 °F -  
Max Temperature 62 °F 68 °F 95 °F (2012)
Min Temperature 25 °F 42 °F 22 °F (1956)
Degree Days  
Heating Degree Days 22    
Moisture  
Dew Point 24 °F    
Average Humidity 55    
Maximum Humidity 86    
Minimum Humidity 18    
Precipitation  
Precipitation 0.00 in - - ()
Sea Level Pressure  
Sea Level Pressure 30.18 in    
Wind  
Wind Speed 7 mph (West)    
Max Wind Speed 18 mph    
Max Gust Speed 32 mph    
Visibility 10 miles    
Events      
Averages and records for this station are not official NWS values.
T = Trace of Precipitation, MM = Missing Value Source: NWS Daily Summary

Daily Weather History Graph

Daily Weather History Graph

Search for Another Location

Airport or City:

Trip Planner

Search our weather history database for the weather conditions in past years. The results will help you decide how hot, cold, wet, or windy it might be!

Date:

Astronomy

Apr. 24, 2013 Rise Set
Actual Time 6:38 AM CDT 8:18 PM CDT
Civil Twilight 6:10 AM CDT 8:47 PM CDT
Nautical Twilight 5:35 AM CDT 9:22 PM CDT
Astronomical Twilight 4:58 AM CDT 9:59 PM CDT
Moon 7:23 PM CDT (4/24) 5:43 AM CDT (4/24)
Length of Visible Light 14h 37m
Length of Day
13h 39m
Waxing Gibbous, 98% of the Moon is Illuminated
Apr 24
Waxing Gibbous
Apr 25
Full
May 2
Last Quarter
May 9
New
May 17
First Quarter

Hourly Weather History & Observations

Time (CDT) Temp. Windchill Dew Point Humidity Pressure Visibility Wind Dir Wind Speed Gust Speed Precip Events Conditions
12:15 AM 29.3 °F 25.6 °F 23.4 °F 78% 30.24 in 10.0 mi WSW 3.5 mph - N/A   Clear
12:35 AM 29.1 °F 24.1 °F 23.9 °F 81% 30.24 in 10.0 mi West 4.6 mph - N/A   Clear
12:55 AM 28.2 °F - 23.0 °F 81% 30.23 in 10.0 mi Calm Calm - N/A   Clear
1:15 AM 27.5 °F - 23.0 °F 83% 30.24 in 10.0 mi Calm Calm - N/A   Clear
1:35 AM 27.0 °F - 22.8 °F 84% 30.24 in 10.0 mi Calm Calm - N/A   Clear
1:55 AM 27.0 °F - 22.8 °F 84% 30.23 in 10.0 mi Calm Calm - N/A   Clear
2:15 AM 26.6 °F - 22.1 °F 83% 30.22 in 10.0 mi Calm Calm - N/A   Clear
2:35 AM 26.4 °F - 22.3 °F 84% 30.22 in 10.0 mi Calm Calm - N/A   Clear
2:55 AM 25.9 °F 20.3 °F 22.1 °F 86% 30.21 in 10.0 mi West 4.6 mph - N/A   Clear
3:15 AM 26.1 °F 19.4 °F 22.3 °F 86% 30.21 in 10.0 mi West 5.8 mph - N/A   Clear
3:35 AM 26.4 °F 19.8 °F 22.1 °F 84% 30.21 in 10.0 mi West 5.8 mph - N/A   Clear
3:55 AM 27.1 °F 19.7 °F 21.9 °F 81% 30.22 in 10.0 mi WSW 6.9 mph - N/A   Clear
4:15 AM 27.1 °F 19.7 °F 21.7 °F 80% 30.22 in 10.0 mi West 6.9 mph - N/A   Clear
4:35 AM 27.5 °F 22.2 °F 21.9 °F 80% 30.22 in 10.0 mi West 4.6 mph - N/A   Clear
5:15 AM 25.7 °F 20.1 °F 21.2 °F 83% 30.21 in 10.0 mi West 4.6 mph - N/A   Clear
5:35 AM 26.8 °F 20.2 °F 21.2 °F 79% 30.21 in 10.0 mi West 5.8 mph - N/A   Clear
5:55 AM 27.1 °F 19.7 °F 21.2 °F 78% 30.21 in 10.0 mi WSW 6.9 mph - N/A   Clear
6:15 AM 27.9 °F 19.8 °F 21.2 °F 76% 30.21 in 10.0 mi WSW 8.1 mph - N/A   Clear
6:35 AM 27.3 °F 19.9 °F 21.2 °F 78% 30.20 in 10.0 mi WSW 6.9 mph - N/A   Clear
6:55 AM 27.3 °F 20.9 °F 21.2 °F 78% 30.21 in 10.0 mi West 5.8 mph - N/A   Clear
7:15 AM 27.3 °F 22.0 °F 21.2 °F 78% 30.21 in 10.0 mi WSW 4.6 mph - N/A   Clear
7:35 AM 29.1 °F 24.1 °F 22.3 °F 76% 30.21 in 10.0 mi WSW 4.6 mph - N/A   Clear
7:55 AM 30.6 °F 27.1 °F 23.4 °F 75% 30.21 in 10.0 mi WSW 3.5 mph - N/A   Clear
8:15 AM 32.4 °F 27.9 °F 24.6 °F 73% 30.21 in 10.0 mi WSW 4.6 mph - N/A   Clear
8:35 AM 34.3 °F 27.7 °F 24.3 °F 67% 30.21 in 10.0 mi WSW 8.1 mph - N/A   Clear
8:55 AM 36.3 °F 30.8 °F 25.3 °F 64% 30.21 in 10.0 mi WSW 6.9 mph - N/A   Clear
9:15 AM 38.3 °F 31.4 °F 25.9 °F 61% 30.20 in 10.0 mi SW 10.4 mph - N/A   Clear
9:35 AM 39.7 °F 33.7 °F 25.3 °F 56% 30.20 in 10.0 mi SW 9.2 mph - N/A   Clear
9:55 AM 42.3 °F 37.3 °F 25.5 °F 52% 30.20 in 10.0 mi WSW 8.1 mph - N/A   Clear
10:15 AM 44.2 °F 39.7 °F 25.3 °F 47% 30.20 in 10.0 mi WSW 8.1 mph - N/A   Clear
10:55 AM 46.8 °F - 25.9 °F 44% 30.19 in 10.0 mi West 8.1 mph - N/A   Clear
11:15 AM 47.5 °F - 26.1 °F 43% 30.19 in 10.0 mi WSW 9.2 mph - N/A   Clear
11:35 AM 48.6 °F - 25.5 °F 41% 30.19 in 10.0 mi WSW 11.5 mph 17.3 mph N/A   Clear
11:55 AM 50.4 °F - 25.5 °F 38% 30.19 in 10.0 mi WSW 8.1 mph 17.3 mph N/A   Clear
12:15 PM 51.6 °F - 25.7 °F 37% 30.18 in 10.0 mi WSW 9.2 mph 17.3 mph N/A   Clear
12:35 PM 52.7 °F - 27.9 °F 38% 30.18 in 10.0 mi SSW 13.8 mph 18.4 mph N/A   Clear
12:55 PM 53.4 °F - 28.2 °F 38% 30.17 in 10.0 mi SSW 13.8 mph 20.7 mph N/A   Clear
1:15 PM 54.1 °F - 28.6 °F 37% 30.16 in 10.0 mi SSW 11.5 mph 19.6 mph N/A   Clear
1:35 PM 55.6 °F - 26.8 °F 33% 30.15 in 10.0 mi West 12.7 mph 19.6 mph N/A   Clear
1:55 PM 56.7 °F - 24.8 °F 29% 30.14 in 10.0 mi West 17.3 mph 24.2 mph N/A   Scattered Clouds
2:15 PM 58.3 °F - 22.3 °F 25% 30.13 in 10.0 mi WSW 16.1 mph 23.0 mph N/A   Clear
2:35 PM 58.1 °F - 25.7 °F 29% 30.13 in 10.0 mi WSW 17.3 mph 21.9 mph N/A   Clear
2:55 PM 59.2 °F - 24.4 °F 26% 30.12 in 10.0 mi West 16.1 mph 25.3 mph N/A   Scattered Clouds
3:15 PM 59.9 °F - 21.4 °F 23% 30.12 in 10.0 mi West 12.7 mph 24.2 mph N/A   Clear
3:35 PM 60.6 °F - 18.3 °F 19% 30.11 in 10.0 mi WSW 18.4 mph 25.3 mph N/A   Clear
3:55 PM 60.6 °F - 18.5 °F 20% 30.11 in 10.0 mi West 18.4 mph 24.2 mph N/A   Clear
4:15 PM 61.2 °F - 18.3 °F 19% 30.10 in 10.0 mi West 12.7 mph 25.3 mph N/A   Clear
4:35 PM 61.9 °F - 19.0 °F 19% 30.09 in 10.0 mi WSW 16.1 mph 27.6 mph N/A   Scattered Clouds
4:55 PM 61.9 °F - 19.0 °F 19% 30.08 in 10.0 mi West 17.3 mph 26.5 mph N/A   Clear
5:15 PM 61.9 °F - 17.1 °F 18% 30.08 in 10.0 mi West 17.3 mph 25.3 mph N/A   Scattered Clouds
5:35 PM 62.4 °F - 18.0 °F 18% 30.08 in 10.0 mi West 11.5 mph 25.3 mph N/A   Scattered Clouds
5:55 PM 62.1 °F - 18.7 °F 19% 30.08 in 10.0 mi WSW 16.1 mph 25.3 mph N/A   Scattered Clouds
6:15 PM 60.8 °F - 18.9 °F 20% 30.08 in 10.0 mi West 16.1 mph 31.1 mph N/A   Mostly Cloudy
6:35 PM 59.9 °F - 21.2 °F 22% 30.09 in 10.0 mi WSW 18.4 mph 32.2 mph N/A   Mostly Cloudy
6:55 PM 58.5 °F - 22.6 °F 25% 30.11 in 10.0 mi NW 16.1 mph 31.1 mph N/A   Mostly Cloudy
7:15 PM 57.2 °F - 25.0 °F 29% 30.12 in 10.0 mi NW 13.8 mph 21.9 mph N/A   Mostly Cloudy
7:35 PM 55.8 °F - 26.2 °F 32% 30.13 in 10.0 mi NW 16.1 mph 24.2 mph N/A   Mostly Cloudy
7:55 PM 53.4 °F - 32.0 °F 44% 30.13 in 10.0 mi NNW 15.0 mph 26.5 mph N/A   Mostly Cloudy
8:15 PM 51.1 °F - 33.1 °F 50% 30.14 in 10.0 mi North 8.1 mph - N/A   Mostly Cloudy
8:35 PM 48.7 °F - 34.0 °F 57% 30.15 in 10.0 mi NNW 6.9 mph - N/A   Scattered Clouds
8:55 PM 46.9 °F - 34.3 °F 62% 30.16 in 10.0 mi NNW 6.9 mph - N/A   Clear
10:35 PM 40.6 °F 38.6 °F 33.3 °F 75% 30.22 in 10.0 mi NNW 3.5 mph - N/A   Clear
10:55 PM 41.0 °F - 33.3 °F 74% 30.22 in 10.0 mi Calm Calm - N/A   Clear
11:15 PM 39.9 °F - 32.9 °F 76% 30.23 in 10.0 mi Calm Calm - N/A   Clear
11:35 PM 38.8 °F - 32.9 °F 79% 30.23 in 10.0 mi Calm Calm - N/A   Clear
11:55 PM 37.2 °F - 32.4 °F 83% 30.23 in 10.0 mi Calm Calm - N/A   Clear